Change the Weather History Date:

Friday, January 18, 2013

  Actual Average Record
Temperature  
Mean Temperature 38 °F -  
Max Temperature 40 °F - - ()
Min Temperature 36 °F - - ()
Degree Days  
Heating Degree Days 27    
Moisture  
Dew Point 36 °F    
Average Humidity 86    
Maximum Humidity 91    
Minimum Humidity 76    
Precipitation  
Precipitation 0.00 in - - ()
Sea Level Pressure  
Sea Level Pressure 30.29 in    
Wind  
Wind Speed 5 mph ()    
Max Wind Speed 12 mph    
Max Gust Speed -    
T = Trace of Precipitation, MM = Missing Value Source: Averaged Metar Reports

Daily Weather History Graph

Daily Weather History Graph

Search for Another Location

Airport or City:

Trip Planner

Search our weather history database for the weather conditions in past years. The results will help you decide how hot, cold, wet, or windy it might be!

Date:

Astronomy

Jan. 18, 2013 Rise Set
Actual Time 8:01 AM PST 4:50 PM PST
Civil Twilight 7:26 AM PST 5:25 PM PST
Nautical Twilight 6:46 AM PST 6:05 PM PST
Astronomical Twilight 6:08 AM PST 6:43 PM PST
Moon 10:58 AM PST (1/18) 12:28 AM PST (1/18)
Length of Visible Light 9h 59m
Length of Day
8h 48m
Waxing Crescent, 48% of the Moon is Illuminated
Jan 18
Waxing Crescent
Jan 18
First Quarter
Jan 26
Full
Feb 3
Last Quarter
Feb 9
New

Hourly Weather History & Observations

Time (PST) Temp. Windchill Dew Point Humidity Pressure Visibility Wind Dir Wind Speed Gust Speed Precip Events Conditions
12:00 AM 39.2 °F 35.9 °F 35.8 °F 88% 30.27 in - ESE 4.6 mph - N/A   Unknown
1:00 AM 39.2 °F - 35.4 °F 86% 30.28 in - East 2.3 mph - N/A   Unknown
2:00 AM 38.5 °F 36.1 °F 35.6 °F 89% 30.27 in - West 3.5 mph - N/A   Unknown
3:00 AM 38.5 °F 34.1 °F 35.8 °F 90% 30.28 in - West 5.8 mph - N/A   Unknown
4:00 AM 39 °F - 36 °F 86% 30.27 in - West 4.6 mph - -  
4:00 AM 39.0 °F 35.7 °F 36.3 °F 90% 30.27 in - West 4.6 mph - N/A   Unknown
5:00 AM 39.0 °F 36.8 °F 36.1 °F 89% 30.26 in - North 3.5 mph - N/A   Unknown
6:00 AM 38.8 °F 34.6 °F 36.3 °F 91% 30.25 in - North 5.8 mph - N/A   Unknown
7:00 AM 39.4 °F 34.5 °F 36.7 °F 90% 30.26 in - North 6.9 mph - N/A   Unknown
8:00 AM 39.4 °F 34.5 °F 36.7 °F 90% 30.27 in - North 6.9 mph - N/A   Unknown
9:00 AM 39.6 °F 36.3 °F 36.5 °F 89% 30.28 in - North 4.6 mph - N/A   Unknown
10:00 AM 40 °F - 37 °F 83% 30.29 in - North 9.2 mph - -  
10:00 AM 39.9 °F 33.9 °F 36.7 °F 88% 30.29 in - North 9.2 mph - N/A   Unknown
11:00 AM 40.3 °F 35.5 °F 36.3 °F 86% 30.30 in - NNW 6.9 mph - N/A   Unknown
12:00 PM 39.9 °F - 36.1 °F 86% 30.29 in - North 2.3 mph - N/A   Unknown
1:00 PM 40.5 °F 36.5 °F 36.3 °F 85% 30.30 in - NNW 5.8 mph - N/A   Unknown
2:00 PM 40.5 °F 35.8 °F 35.6 °F 83% 30.29 in - NW 6.9 mph - N/A   Unknown
3:00 PM 40.5 °F 35.1 °F 35.6 °F 83% 30.30 in - NNW 8.1 mph - N/A   Unknown
4:00 PM 40 °F - 35 °F 77% 30.30 in - NW 5.8 mph - -  
4:00 PM 40.3 °F 36.3 °F 35.2 °F 82% 30.30 in - NW 5.8 mph - N/A   Unknown
5:00 PM 40.5 °F 35.8 °F 36.0 °F 84% 30.30 in - NW 6.9 mph - N/A   Unknown
6:00 PM 40.5 °F 35.1 °F 35.2 °F 82% 30.30 in - WNW 8.1 mph - N/A   Unknown
7:00 PM 40.3 °F 34.4 °F 35.8 °F 84% 30.30 in - WNW 9.2 mph - N/A   Unknown
8:00 PM 40.3 °F 34.4 °F 35.8 °F 84% 30.30 in - WNW 9.2 mph - N/A   Unknown
9:00 PM 40.1 °F 33.6 °F 36.5 °F 87% 30.31 in - NW 10.4 mph - N/A   Unknown
10:00 PM 40 °F - 35 °F 76% 30.32 in - WNW 11.5 mph - -  
10:00 PM 39.7 °F 32.7 °F 35.1 °F 83% 30.32 in - WNW 11.5 mph - N/A   Unknown